This demonstration page uses our WeatherBlox Daily Observations layout. Learn more.

Left ArrowRight Arrow

53.62937, 11.41316

Hourly Observations for May 20, 2016

Temp ( °F °C ) Dew Point ( °F °C ) Humidity (%) Winds ( mph kmh ) Pressure ( in mb ) Visibility ( mi km ) Precip ( " mm )
6:20 am 06:20 Mostly Sunny 54 12 50 10 88 88 WSW 6 9 29.97 1015 7 11 N/A
6:50 am 06:50 Mostly Sunny 55 13 52 11 88 88 WSW 8 13 29.97 1015 7 11 N/A
7:20 am 07:20 Mostly Sunny 55 13 52 11 88 88 WSW 9 15 29.97 1015 7 11 N/A
7:50 am 07:50 Mostly Sunny 57 14 52 11 82 82 SW 8 13 29.97 1015 7 11 N/A
8:20 am 08:20 Mostly Sunny 59 15 52 11 77 77 WSW 9 15 29.97 1015 30 48 N/A
8:50 am 08:50 Partly Cloudy 59 15 52 11 77 77 SW 10 17 29.97 1015 30 48 N/A
9:20 am 09:20 Mostly Sunny 61 16 52 11 72 72 SW 10 17 29.97 1015 30 48 N/A
9:50 am 09:50 Mostly Sunny 64 18 50 10 60 60 WSW 15 24 29.97 1015 7 11 N/A
10:20 am 10:20 Mostly Sunny 66 19 48 9 52 52 SW 15 24 29.97 1015 7 11 N/A
10:50 am 10:50 Mostly Sunny 66 19 46 8 49 49 WSW 15 24 29.97 1015 30 48 N/A
11:20 am 11:20 Partly Cloudy 68 20 45 7 43 43 WSW 16 26 29.97 1015 30 48 N/A
11:50 am 11:50 Mostly Sunny 66 19 45 7 46 46 WSW 16 26 29.97 1015 7 11 N/A
12:20 pm 12:20 Mostly Sunny 68 20 45 7 43 43 SSW 14 22 29.97 1015 7 11 N/A
12:50 pm 12:50 Mostly Sunny 66 19 46 8 49 49 WSW 16 26 29.97 1015 7 11 N/A
1:20 pm 13:20 Mostly Sunny 68 20 45 7 43 43 SW 18 30 29.94 1014 7 11 N/A
1:50 pm 13:50 Mostly Sunny 66 19 45 7 46 46 WSW 18 30 29.97 1015 7 11 N/A
2:20 pm 14:20 Mostly Sunny 68 20 45 7 43 43 SW 20 31 29.94 1014 7 11 N/A
2:50 pm 14:50 Mostly Sunny 66 19 45 7 46 46 SW 17 28 29.97 1015 7 11 N/A
3:20 pm 15:20 Mostly Sunny 64 18 46 8 52 52 WSW 20 31 29.97 1015 7 11 N/A
3:50 pm 15:50 Mostly Sunny 63 17 48 9 59 59 WSW 18 30 29.97 1015 7 11 N/A
4:20 pm 16:20 Mostly Cloudy with Light Rain 61 16 52 11 72 72 W 15 24 30.00 1016 30 48 N/A
4:50 pm 16:50 Cloudy 61 16 52 11 72 72 SW 14 22 30.00 1016 30 48 N/A
5:20 pm 17:20 Mostly Cloudy 61 16 52 11 72 72 WSW 14 22 30.00 1016 30 48 N/A
5:50 pm 17:50 Mostly Cloudy 59 15 52 11 77 77 WSW 14 22 30.00 1016 30 48 N/A
6:20 pm 18:20 Cloudy 61 16 52 11 72 72 WSW 14 22 30.00 1016 30 48 N/A
6:50 pm 18:50 Cloudy 61 16 52 11 72 72 WSW 10 17 30.00 1016 30 48 N/A

Powered by AerisWeather